Regional Weather Roundup
Issued by NWS

Home | Current Version | Previous Version | Text Only | Print | Product List | Glossary Off
Versions: 1 2 3 4 5 6 7 8 9 10 11 12 13 14 15 16 17 18 19 20 21 22 23 24 25 26 27 28 29 30 31 32 33 34 35 36 37 38 39 40 41 42 43 44 45 46 47 48 49 50

000
ASUS43 KMKX 062011
RWRWI

WISCONSIN REGIONAL WEATHER ROUNDUP
NATIONAL WEATHER SERVICE MILWAUKEE/SULLIVAN WI
300 PM CDT FRI MAY 06 2016

NOTE: "FAIR" INDICATES FEW OR NO CLOUDS BELOW 12,000 FEET WITH NO
SIGNIFICANT WEATHER AND/OR OBSTRUCTIONS TO VISIBILITY.

WIZ001-002-006>008-014>016-023>028-062100-
NORTHWEST WISCONSIN

CITY           SKY/WX    TMP DP  RH WIND       PRES   REMARKS
SUPERIOR ARPT  MOSUNNY   92  46  20 W20G28    29.62F HX  88
ASHLAND        MOSUNNY   91  43  18 SW14G21   29.65F HX  87
HAYWARD        SUNNY     88  41  19 SW15G30   29.71F HX  84
SIREN          SUNNY     88  47  24 SW14G21   29.72F HX  85
CUMBERLAND     MOSUNNY   84  43  23 SW18G24   29.75F HX  82
RICE LAKE      SUNNY     87  43  21 SW18G24   29.76F HX  84
CHETEK         MOSUNNY   87  51  28 W12G22    29.75F HX  84
LADYSMITH      SUNNY     87  42  20 SW13G18   29.76F HX  84
EAU CLAIRE     SUNNY     90  46  21 W14       29.75F HX  86
MENOMONIE      SUNNY     90  45  20 W15G23    29.75F HX  86
NEW RICHMOND   SUNNY     86  46  24 SW15      29.75F HX  83
OSCEOLA        SUNNY     87  49  26 SW14G23   29.77S HX  84
$$

WIZ003>005-009-010-017-018-062100-
NORTH CENTRAL WISCONSIN

CITY           SKY/WX    TMP DP  RH WIND       PRES   REMARKS
MANITOWISH WTR MOSUNNY   86  34  15 W10G23    29.72F HX  83
ARBOR VITAE    SUNNY     87  24  10 SW15G26   29.73F HX  83
WOODRUFF       SUNNY     87  24  10 SW15G26   29.73F HX  83
RHINELANDER    SUNNY     87  34  15 SW13G20   29.75F HX  84
EAGLE RIVER      N/A     86  25  10 W20G25    29.73F HX  83
LAND O LAKES   SUNNY     88  28  11 W7G18     29.73F HX  84
PHILLIPS       SUNNY     86  42  21 W9G20     29.74F HX  83
TOMAHAWK       SUNNY     86  32  14 W16G24    29.76F HX  83
MEDFORD        SUNNY     84  46  26 W10G18    29.77F HX  81
MERRILL        SUNNY     87  42  20 W13G23    29.76F HX  83
$$

WIZ029-030-035-036-043>047-062100-
CENTRAL WISCONSIN

CITY           SKY/WX    TMP DP  RH WIND       PRES   REMARKS
WAUSAU         SUNNY     88  41  19 W12G20    29.75F HX  84
MOSINEE        SUNNY     84  43  23 SW12G17   29.79F HX  82
MARSHFIELD     SUNNY     88  42  20 W10G20    29.77F HX  84
STEVENS POINT  SUNNY     84  46  25 W9        29.78F HX  82
WAUPACA        SUNNY     88  39  17 W12G17    29.78F HX  84
WAUTOMA        SUNNY     87  45  23 VRB7G17   29.78F HX  84
WISC RAPIDS    SUNNY     89  34  14 W13G22    29.79F HX  85
CAMP DOUGLAS   SUNNY     88  48  25 W14G22    29.79F HX  85
$$

WIZ011>013-019>022-031-037>040-048>050-062100-
NORTHEAST WISCONSIN

CITY           SKY/WX    TMP DP  RH WIND       PRES   REMARKS
ANTIGO         SUNNY     84  47  27 SW10G18   29.77F HX  82
SHAWANO        SUNNY     87  44  22 S6        29.76F HX  84
OCONTO         SUNNY     79  50  36 S12       29.75F
STURGEON BAY   SUNNY     66  45  45 S17G24    29.81F
GREEN BAY      SUNNY     83  46  27 VRB3      29.77F HX  81
MANITOWOC      SUNNY     64  43  46 SE12G30   29.82F
APPLETON       MOSUNNY   82  39  21 W14       29.78F HX  80
CLINTONVILLE   SUNNY     86  41  20 W13       29.76F HX  83
OSHKOSH        SUNNY     81  47  30 W9        29.79F HX  80
$$

WIZ032>034-041-042-053>061-062100-
SOUTHWEST WISCONSIN

CITY           SKY/WX    TMP DP  RH WIND       PRES   REMARKS
LA CROSSE      SUNNY     90  40  17 W10       29.78F HX  86
SPARTA         SUNNY     88  38  17 SW10G18   29.80F HX  84
VIROQUA        SUNNY     87  36  16 W17G24    29.84F HX  83
BOSCOBEL       SUNNY     90  43  19 W10G17    29.82F HX  86
PRAIRIE DU CHI SUNNY     88  34  14 SW17      29.82F HX  84
PLATTEVILLE    SUNNY     85  47  26 SW15G21   29.87F HX  82
$$

WIZ056-057-062-063-064-067-068-062100-
SOUTH CENTRAL WISCONSIN

CITY           SKY/WX    TMP DP  RH WIND       PRES   REMARKS
REEDSBURG      SUNNY     85  48  27 W12G24    29.81F HX  82
BARABOO/DELLS  SUNNY     85  41  20 W15       29.82F HX  82
LONE ROCK      SUNNY     85  48  27 W16G24    29.82F HX  82
MINERAL POINT  SUNNY     84  43  23 W10       29.86F HX  82
MADISON        MOSUNNY   81  49  32 SW8       29.83F HX  80
MIDDLETON      SUNNY     83  49  30 W10G16    29.84F HX  81
WATERTOWN      SUNNY     82  49  32 W10       29.82F HX  80
MONROE         SUNNY     81  45  28 W17       29.87F
JANESVILLE     MOSUNNY   84  46  26 W9        29.85F HX  82
$$

WIZ051-052-058>065-066-070>072-062100-
SOUTHEAST WISCONSIN

CITY           SKY/WX    TMP DP  RH WIND       PRES   REMARKS
MILWAUKEE      MOSUNNY   82  46  28 SW10      29.82F HX  80
WAUKESHA       MOSUNNY   79  45  29 W8        29.84F
MILWAUKEE/TIMM NOT AVBL
RACINE         SUNNY     71  43  36 S12       29.85F
BURLINGTON     SUNNY     82  44  26 W12       29.84F HX  80
KENOSHA        SUNNY     81  49  32 SW9G22    29.84F HX  80
FOND DU LAC    SUNNY     81  45  28 W10       29.80F HX  80
SHEBOYGAN      SUNNY     72  48  42 SE12      29.81F
WEST BEND      SUNNY     81  43  26 W10G16    29.81F
JUNEAU         SUNNY     81  45  27 W14       29.83F HX  80
$$

LSZ147-162-062100-
LAKE SUPERIOR

STATION/POSITION TIME  TEMP    WIND        PRES    WAVE
                       AIR SEA DIR/SP/G            HT/PER
                 (UTC) (F)     (DEG/KT/KT) (MB)    (FT/S)
W MID LAKE BUOY  1950   51 37  210/ 12/ 12 1003.0F   1
DEVILS ISLAND    2000   80     230/ 20/ 22 1002.1F
SAXON HARBOR     1900   88     270/  6/ 17 1004.4F
$$

LMZ867-665-643>646-062100-
LAKE MICHIGAN

STATION/POSITION TIME  TEMP    WIND        PRES    WAVE
                       AIR SEA DIR/SP/G            HT/PER
                 (UTC) (F)     (DEG/KT/KT) (MB)    (FT/S)
CHAMBERS ISLAND  1900   71     160/  8/ 16 1008.8F
N MID LAKE BUOY  1950   45 39  190/ 14/ 17 1009.1F   2/ 4
NORTHPORT PIER   1900   54     150/ 11/ 15 1009.5F
SISTER BAY       1919   67     180/ 17/ 20   N/A
ALGOMA LAKESHORE 1915          210/ 15/ 17   N/A
KEWAUNEE LAKESHO 1900   47     170/ 15/ 17 1009.5F
SHEBOYGAN LAKESH 2000   47     170/ 12/ 13 1010.3F
PORT WASHINGTON  1900   56     180/  5/ 10 1011.2
MILWAUKEE LAKESH 1910   53     140/ 16/ 18   N/A
S MID LAKE BUOY  1950   46 41  150/ 12/ 12 1011.6F   1
KENOSHA   LAKESH 2000   55     180/ 11/ 17 1010.2F
$$

TC  - TEMPERATURE IN CELSIUS
VSB - VISIBILITY IN STATUTE MILES
WCI - WIND CHILL INDEX
HX  - HEAT INDEX





USA.gov is the U.S. government's official web portal to all federal, state and local government web resources and services.